Vertical_Velocity
-4 -1 -2 -2 -1 -0 3 2 -0 -4 -3 2 3 4 -1 -0 -5 -5 -3 2 21 -5 -6 -13 -1 -4 2 5 7 -2 7 0 -11 3 -16 1 0 -7 -8 0 5 -6 -7 7 -3
-1 -4 -1 0 -1 -2 -4 -2 1 4 -1 -3 -4 1 4 1 -10 -4 -5 28 2 -6 -5 -0 -3 -4 5 -4 5 8 4 -10 -6 -4 -5 -1 -2 -2 8 4 2 9 1 1 6
-3 -2 2 2 -1 1 -2 -1 -0 1 -3 1 -1 -3 2 -5 -3 22 -10 -5 -5 -7 -8 11 15 27 8 5 -6 -5 -4 -2 -9 1 5 -1 2 6 -2 2 -6 -6 -0 -3 -1
-1 0 -2 -1 -1 -0 -2 -2 2 1 -1 -2 -1 0 -1 -1 2 13 5 -0 30 -11 2 -3 -2 9 5 4 -4 17 -1 -1 -9 -4 5 -0 3 -5 6 -12 -8 -9 -7 -2 -3
-4 -3 -3 -2 -3 -3 -2 -3 0 2 1 1 2 0 3 4 -22 -8 22 -11 -8 -7 -8 1 1 3 3 2 6 11 -5 2 -3 0 1 -2 -3 -3 -6 20 14 2 9 3 -3
-2 -3 -1 -3 -3 -1 -1 -2 1 2 0 -0 1 -1 6 4 10 8 -2 10 -3 -0 -10 1 4 3 -0 1 7 -5 -1 -6 -1 -3 4 2 -3 8 -18 24 -8 12 5 7 -2
-4 -2 -1 -1 -3 -5 -3 -1 1 -2 -1 1 0 -3 9 -24 11 -8 -4 -1 -6 -0 10 -11 3 1 1 -1 -13 -2 8 3 -1 -5 -1 -2 4 -0 -22 14 -3 0 1 2 1
-2 -2 -2 -2 -2 -3 -5 -1 0 -1 -2 1 0 -1 -7 -4 -11 3 1 -15 4 -0 -3 -2 0 -1 -0 -2 -8 9 15 6 -10 2 -2 -2 -10 -6 1 3 9 -0 0 -0 7
-3 -4 -3 1 -2 -4 -4 -4 3 -1 -0 -4 4 2 4 -5 13 2 -5 -2 -3 15 -5 6 -2 -2 1 3 0 2 -2 3 -0 -1 1 -2 -2 -8 -2 -3 -5 10 6 -1 6
-2 -2 1 -1 -3 -3 -3 -7 0 -2 -4 -5 -3 14 -0 -1 -1 -14 -2 5 0 6 -6 7 -0 1 2 5 -10 -4 2 1 -4 -12 7 4 -3 1 -3 1 0 -4 8 2 5
-2 -1 -2 -2 -3 -1 -12 -18 -39 9 -7 8 0 3 1 -4 -8 2 3 -16 5 6 4 -2 5 -2 -7 -3 -1 3 4 -1 -5 -8 7 -4 -1 -1 -1 1 -2 -5 18 2 11
-3 -1 -3 -3 -1 -5 6 -10 2 1 -12 -4 -8 2 10 -1 -6 -17 -1 2 4 1 1 11 -2 -8 0 2 3 2 2 -8 -6 -1 16 1 -3 -2 0 -2 -1 -2 -7 14 1
-1 -3 -2 -0 -3 0 14 1 1 5 4 -12 3 -1 -3 -4 -2 -12 8 1 5 2 -0 6 -12 1 4 1 3 -1 2 -2 -3 -3 -2 4 4 6 2 1 1 -8 3 19 -3
-2 -1 -3 -8 -0 -5 11 -2 0 1 3 5 2 4 -5 -1 3 -4 -2 5 -2 3 1 0 -7 3 1 -0 0 3 -0 2 3 5 -2 4 -4 2 1 1 3 1 2 -7 6
-2 -3 -5 -1 -2 3 1 1 -0 1 0 -3 -3 -7 -4 14 5 2 -6 1 0 -2 7 -9 -1 -1 2 -8 -1 -5 2 2 1 1 1 -2 5 -6 1 4 -1 -1 -8 -6 16
-2 -3 -4 -2 4 5 4 -0 -3 8 -0 1 5 -3 -7 -5 -4 1 4 6 0 3 0 -6 -5 6 -2 -3 0 -3 2 -1 -2 -1 3 -2 1 -3 -3 -15 2 1 1 -4 10
-1 -2 -2 -5 -2 -2 1 1 6 -2 -3 -3 -1 -1 1 -1 -8 -3 -1 -2 0 -2 0 -4 -4 -2 6 4 3 4 -1 1 -5 -4 -2 0 6 -12 -2 -2 -9 -5 -3 -1 0
-2 -3 -5 -6 -1 0 -3 3 -5 5 4 -5 1 -3 1 1 -3 -4 -2 -1 -2 -2 1 3 -7 2 -2 -3 -5 -2 -2 -4 -5 -2 -5 1 -1 -14 -3 -2 -2 -4 -5 11 14
-2 -6 0 -1 -2 3 6 -3 4 3 7 2 -12 -3 -4 -5 6 -2 2 0 2 0 1 1 -2 -6 2 -1 6 4 2 2 -1 -2 2 -4 4 -1 1 2 2 2 3 4 1
-4 -7 2 -4 1 -0 -2 0 1 2 0 -2 3 2 2 -1 -4 -1 -0 1 0 0 0 -5 1 -0 -8 4 1 -8 -2 -6 2 0 1 2 -0 -4 3 0 1 1 1 3 7
-6 4 -2 -1 -6 -6 -1 1 0 0 1 1 0 0 3 3 5 -0 -3 -11 -1 -1 0 2 6 -5 3 -0 -4 6 1 1 -1 1 3 -1 2 3 1 -0 -1 -1 0 -1 -4
-2 -1 -2 -0 -7 -0 0 2 2 -0 -1 -0 3 2 2 0 0 0 1 4 0 9 -0 -1 2 -0 -5 1 -0 -5 -3 -1 -2 -1 -1 -2 1 2 2 2 1 0 2 5 -7
-1 3 -8 -8 -2 -1 -5 -0 3 -4 0 -1 -0 1 -1 2 -0 3 -0 -3 4 1 1 0 -3 -1 -5 -5 -5 -0 -2 -2 0 -1 -1 -3 3 1 -1 -1 -1 1 4 11 2
1 -2 -2 -11 -3 2 0 0 -3 1 -2 -1 1 2 -4 -2 -2 -3 -4 -6 -3 3 4 2 0 3 6 2 1 -1 0 -0 -1 -1 -1 -2 2 -2 -1 1 -0 -2 2 0 14
-5 0 -0 -0 -3 -1 -0 2 -1 -2 -1 -0 -4 2 7 -1 -2 -0 -3 -10 -7 4 -4 3 1 3 -3 -1 2 -2 -2 0 -1 -0 -1 4 -2 4 2 1 3 2 0 -1 1
1 1 -4 -1 -2 -1 -1 -0 3 -7 6 -5 2 -1 2 5 3 -0 7 -0 0 -6 -1 -2 -4 2 -4 -1 1 1 1 -0 -0 -0 1 -2 4 2 5 -2 -6 4 1 2 1
-4 1 4 0 -2 -1 1 -2 -1 1 -7 6 8 4 -1 -0 8 -1 3 1 -1 8 -0 2 2 -0 -2 0 0 6 2 1 1 -0 3 -3 10 1 0 1 2 -0 5 2 0
Height
1512 1508 1505 1502 1498 1495 1491 1487 1484 1481 1478 1475 1472 1469 1465 1461 1458 1454 1451 1452 1450 1448 1448 1450 1450 1451 1452 1453 1455 1454 1454 1446 1446 1446 1443 1442 1444 1446 1448 1450 1451 1455 1462 1464 1468
1510 1507 1504 1501 1497 1493 1489 1485 1481 1478 1475 1472 1469 1466 1462 1459 1455 1448 1442 1447 1445 1444 1443 1444 1446 1449 1451 1449 1450 1450 1445 1437 1437 1442 1443 1444 1445 1448 1449 1450 1453 1454 1460 1466 1467
1509 1506 1503 1500 1495 1491 1486 1482 1478 1474 1471 1468 1465 1462 1459 1456 1453 1445 1443 1443 1443 1442 1441 1443 1444 1445 1446 1446 1445 1442 1437 1438 1438 1438 1442 1451 1445 1450 1449 1451 1446 1450 1455 1462 1466
1508 1505 1500 1495 1491 1487 1484 1479 1474 1470 1467 1464 1461 1458 1456 1456 1452 1445 1446 1445 1442 1442 1440 1441 1441 1441 1441 1438 1440 1442 1437 1440 1440 1439 1444 1445 1445 1450 1443 1442 1446 1451 1452 1457 1462
1507 1502 1497 1492 1488 1484 1480 1475 1470 1466 1463 1460 1457 1455 1454 1453 1448 1444 1445 1443 1441 1441 1442 1442 1443 1442 1439 1435 1439 1435 1435 1436 1437 1437 1441 1448 1445 1440 1441 1441 1443 1447 1449 1451 1458
1504 1500 1495 1490 1485 1481 1476 1471 1467 1463 1459 1455 1453 1453 1454 1453 1445 1445 1444 1442 1440 1440 1441 1443 1444 1443 1440 1435 1434 1434 1434 1432 1430 1430 1436 1447 1447 1452 1440 1438 1441 1446 1448 1450 1454
1502 1498 1493 1488 1483 1479 1474 1469 1463 1458 1455 1452 1451 1451 1452 1449 1446 1445 1442 1441 1440 1440 1440 1442 1443 1444 1444 1438 1435 1432 1433 1426 1426 1426 1430 1440 1446 1439 1441 1446 1439 1444 1446 1451 1453
1501 1496 1491 1486 1482 1476 1471 1465 1460 1455 1454 1451 1449 1449 1448 1446 1445 1443 1443 1441 1440 1439 1439 1440 1443 1443 1443 1440 1433 1432 1432 1434 1421 1424 1430 1433 1431 1436 1441 1441 1438 1442 1445 1449 1452
1499 1494 1490 1485 1480 1474 1468 1463 1458 1454 1452 1450 1451 1451 1448 1446 1444 1443 1442 1440 1439 1438 1439 1439 1442 1443 1443 1442 1439 1431 1430 1427 1427 1419 1425 1432 1430 1429 1437 1438 1445 1439 1442 1446 1451
1498 1493 1489 1485 1479 1473 1468 1461 1456 1454 1450 1449 1451 1453 1449 1447 1443 1440 1438 1437 1437 1437 1440 1441 1441 1441 1442 1440 1437 1428 1428 1418 1420 1418 1417 1429 1430 1427 1432 1440 1435 1443 1438 1442 1447
1497 1493 1488 1483 1478 1473 1466 1460 1457 1456 1451 1452 1450 1449 1447 1446 1442 1439 1437 1436 1435 1435 1435 1438 1438 1436 1436 1435 1431 1422 1418 1418 1409 1411 1413 1416 1427 1427 1432 1435 1442 1444 1439 1435 1442
1496 1492 1487 1482 1477 1474 1472 1467 1468 1468 1458 1448 1448 1446 1445 1444 1442 1439 1437 1437 1434 1433 1428 1433 1431 1427 1424 1427 1430 1432 1427 1421 1407 1401 1406 1413 1420 1423 1428 1429 1435 1433 1437 1434 1437
1496 1491 1485 1481 1477 1474 1473 1470 1468 1467 1464 1449 1448 1445 1445 1444 1439 1438 1437 1436 1433 1430 1427 1427 1418 1416 1418 1424 1429 1431 1429 1423 1416 1408 1402 1407 1418 1420 1420 1424 1432 1442 1437 1431 1430
1495 1490 1485 1479 1476 1474 1473 1470 1466 1467 1465 1451 1448 1449 1446 1442 1436 1437 1437 1439 1434 1431 1424 1423 1417 1415 1415 1419 1428 1430 1421 1422 1416 1423 1421 1402 1422 1415 1415 1423 1428 1434 1436 1439 1436
1494 1489 1484 1477 1477 1476 1473 1467 1466 1467 1464 1451 1449 1448 1446 1442 1438 1438 1438 1436 1435 1432 1433 1423 1417 1417 1415 1414 1416 1422 1423 1414 1413 1424 1425 1414 1423 1403 1408 1422 1424 1425 1428 1437 1436
1493 1487 1484 1481 1478 1475 1469 1465 1466 1466 1470 1452 1451 1449 1444 1438 1436 1437 1436 1435 1435 1432 1428 1422 1419 1417 1415 1413 1414 1423 1428 1425 1417 1424 1420 1418 1420 1411 1405 1403 1412 1416 1421 1431 1435
1492 1487 1484 1481 1478 1472 1467 1465 1465 1466 1457 1459 1456 1452 1444 1441 1438 1438 1440 1436 1441 1440 1430 1416 1409 1411 1414 1415 1414 1420 1426 1431 1448 1441 1415 1411 1418 1401 1388 1394 1400 1407 1413 1421 1434
1491 1486 1484 1481 1477 1471 1467 1467 1472 1467 1469 1465 1461 1449 1443 1445 1444 1442 1439 1442 1442 1444 1439 1426 1416 1408 1407 1411 1415 1417 1422 1434 1450 1443 1415 1416 1412 1398 1386 1388 1393 1400 1408 1417 1423
1489 1486 1485 1481 1476 1472 1471 1474 1478 1474 1473 1470 1461 1454 1454 1450 1453 1449 1444 1445 1447 1448 1450 1443 1416 1412 1403 1405 1410 1414 1425 1417 1428 1421 1421 1407 1399 1388 1384 1388 1391 1398 1406 1410 1416
1489 1487 1485 1481 1477 1474 1475 1477 1477 1474 1473 1470 1469 1464 1466 1459 1460 1457 1448 1447 1448 1447 1448 1441 1428 1407 1403 1403 1406 1412 1413 1427 1432 1423 1409 1406 1402 1399 1390 1390 1391 1394 1397 1407 1416
1490 1488 1485 1482 1479 1477 1483 1481 1476 1476 1474 1473 1472 1471 1467 1468 1464 1459 1454 1445 1443 1443 1444 1442 1433 1415 1411 1406 1408 1413 1418 1423 1418 1423 1407 1404 1405 1396 1393 1387 1389 1391 1394 1402 1412
1492 1491 1486 1483 1484 1484 1483 1481 1481 1478 1477 1475 1472 1469 1470 1467 1467 1464 1455 1448 1446 1448 1446 1442 1437 1431 1405 1399 1400 1403 1411 1416 1420 1422 1411 1408 1414 1398 1399 1395 1394 1393 1396 1402 1409
1495 1493 1490 1486 1492 1490 1487 1483 1482 1481 1480 1478 1476 1474 1471 1472 1477 1460 1455 1449 1447 1449 1448 1444 1436 1429 1405 1413 1404 1407 1405 1409 1412 1408 1412 1413 1410 1402 1400 1400 1399 1400 1401 1403 1408
1499 1497 1494 1493 1496 1497 1495 1490 1485 1481 1480 1480 1476 1473 1475 1474 1471 1468 1462 1452 1451 1448 1445 1444 1436 1429 1418 1419 1420 1420 1414 1407 1409 1423 1412 1406 1410 1411 1409 1407 1407 1407 1406 1408 1412
1501 1503 1502 1499 1498 1499 1498 1494 1488 1486 1484 1481 1477 1476 1478 1486 1472 1464 1459 1454 1450 1445 1447 1446 1436 1428 1418 1410 1406 1411 1412 1416 1415 1414 1416 1410 1413 1418 1416 1415 1415 1416 1413 1413 1414
1505 1506 1504 1501 1500 1498 1498 1496 1493 1490 1489 1484 1482 1480 1479 1479 1475 1467 1463 1464 1460 1448 1450 1447 1437 1424 1413 1397 1399 1404 1411 1414 1421 1417 1411 1410 1420 1424 1423 1419 1423 1423 1421 1419 1419
1507 1507 1506 1503 1500 1498 1500 1498 1494 1491 1488 1486 1484 1480 1478 1472 1468 1462 1459 1456 1456 1454 1451 1450 1438 1430 1408 1405 1402 1410 1417 1416 1425 1429 1424 1422 1427 1428 1431 1423 1434 1433 1429 1425 1423